[[{"header":{"parameterUnit":"m.s-1","parameterCategory":1,"la1":30.2991,"la2":30.254,"lo1":-89.0895,"lo2":-89.0444,"dy":0.0017,"dx":0.0017,"nx":28,"ny":28,"refTime":"2023-10-24T09:00:00:Z","depth":0,"parameterNumber":2,"parameterNumberName":"U-component_of_WINDS"},"data":[0,0,0,0,0,0,0,0,0,0,0,0,0,0,0,0,0,0,0,0,0,0,0,0,0,0,0,0,0,0,0,0,0,0,0,0,0,0,0,0,0,0,0,0,0,0,0,0,0,0,0,0,0,0,0,0,0,0,-2.3657,-2.3657,0,-2.3657,-2.3657,-2.3657,-2.3538,-2.3535,-2.3532,-2.3529,-2.353,-2.3533,-2.3536,0,0,0,0,0,0,0,0,0,0,0,0,0,-2.3559,-2.3561,-2.3657,-2.3657,-2.3657,-2.3657,-2.3657,-2.3657,-2.3539,-2.3535,-2.3531,-2.3527,-2.3529,-2.3533,-2.3536,0,0,0,0,0,0,0,0,0,0,0,0,0,-2.3585,-2.3562,-2.3657,-2.3598,-2.3593,-2.3657,-2.3657,-2.3657,-2.3539,-2.3535,-2.353,-2.3526,-2.3528,-2.3533,-2.3537,-2.3658,0,0,-2.355,-2.3552,0,0,0,0,0,0,0,0,-2.3583,-2.3588,-2.3607,-2.3602,-2.3597,-2.3593,-2.3623,-2.3657,-2.3541,-2.356,-2.3529,-2.3523,-2.3555,-2.3557,-2.3567,-2.3658,-2.3658,-2.3551,-2.3554,-2.3555,-2.3557,0,0,0,0,0,0,0,-2.3582,-2.3588,-2.3657,-2.3607,-2.3601,-2.3573,-2.3571,-2.3629,-2.3584,-2.3558,-2.3549,-2.3551,-2.3551,-2.3563,-2.3566,-2.3658,-2.3551,-2.3555,-2.3557,-2.3559,-2.3851,-2.3856,0,0,0,0,0,0,-2.3588,-2.3587,-2.3657,-2.3657,-2.3578,-2.3578,-2.3577,-2.3599,-2.3583,-2.3576,-2.3555,-2.3545,-2.3558,-2.3561,-2.3566,-2.3708,-2.3555,-2.356,-2.3562,-2.3846,-2.3852,-2.3857,0,0,0,0,0,0,-2.3586,-2.3595,-2.3657,-2.362,-2.3625,-2.3585,-2.3611,-2.3601,-2.3613,-2.358,-2.3572,-2.3575,-2.3554,-2.356,-2.3636,-2.3706,-2.3562,-2.3566,-2.384,-2.3848,-2.3855,-2.3992,0,0,0,0,0,0,-2.3584,-2.3595,-2.364,-2.3622,-2.3628,-2.3727,-2.3615,-2.3605,-2.3621,-2.3608,-2.3597,-2.3591,-2.3551,-2.363,-2.3641,-2.371,-2.3569,-2.3833,-2.3843,-2.3852,-2.3981,-2.4004,-2.4023,0,0,0,0,0,-2.358,-2.3678,-2.3643,-2.3652,-2.3683,-2.3731,-2.3735,-2.3687,-2.3627,-2.3672,-2.3652,-2.3591,-2.3697,-2.3639,-2.365,-2.3721,-2.3829,-2.384,-2.3851,-2.3972,-2.3999,-2.4023,0,0,0,0,0,0,-2.3706,-2.3675,-2.3635,-2.373,-2.3734,-2.3711,-2.3766,-2.3717,-2.3739,-2.3726,-2.3666,-2.3665,-2.3751,-2.3744,-2.368,-2.3839,-2.3752,-2.3767,-2.3841,-2.3866,-2.3887,-2.3887,-2.3573,0,0,0,0,0,-2.3745,-2.3786,-2.3757,-2.3843,-2.3848,-2.3807,-2.3826,-2.3789,-2.3791,-2.3793,-2.3777,-2.3783,-2.3817,-2.3841,-2.3871,-2.398,-2.3977,-2.4035,-2.4055,-2.4073,-2.4086,-2.4145,-2.4171,-2.3895,-2.3895,-2.3895,0,0,-2.3825,-2.3813,-2.3843,-2.3868,-2.3867,-2.3912,-2.3809,-2.3861,-2.3894,-2.38,-2.3872,-2.3862,-2.3864,-2.3958,-2.3998,-2.3954,-2.4161,-2.4087,-2.4101,-2.4105,-2.4159,-2.4186,-2.4209,-2.3903,-2.3901,-2.39,0,0,-2.3994,-2.3989,-2.4061,-2.4063,-2.4063,-2.4035,-2.4053,-2.4038,-2.4028,-2.4099,-2.403,-2.407,-2.413,-2.4135,-2.4145,-2.432,-2.4266,-2.4331,-2.444,-2.4498,-2.452,-2.4539,-2.4602,-2.4626,-2.4344,-2.4344,-2.4345,0,-2.4094,-2.4158,-2.4105,-2.4162,-2.4176,-2.4093,-2.4167,-2.4171,-2.4182,-2.4194,-2.4144,-2.422,-2.4215,-2.431,-2.4353,-2.4364,-2.4383,-2.4332,-2.4521,-2.4539,-2.4556,-2.4616,-2.464,-2.4352,-2.4352,-2.4351,-2.435,0,-2.4282,-2.4328,-2.4386,-2.4399,-2.4419,-2.4484,-2.4442,-2.447,-2.4432,-2.4411,-2.4485,-2.4477,-2.4505,-2.4525,-2.4488,-2.4616,-2.4588,-2.4531,-2.4443,-2.4591,-2.4647,-2.4669,-2.4364,-2.4361,-2.4359,-2.4357,0,0,-2.4528,-2.4512,-2.4534,-2.454,-2.4535,-2.457,-2.4632,-2.4659,-2.4685,-2.4696,-2.4747,-2.4802,-2.4749,-2.4761,-2.4724,-2.4776,-2.4916,-2.4712,-2.4711,-2.4751,-2.5059,-2.5103,-2.513,-2.4881,-2.4885,-2.4888,-2.5059,0,-2.4693,-2.4798,-2.4753,-2.4862,-2.4905,-2.4829,-2.4884,-2.4888,-2.4871,-2.4905,-2.4886,-2.4926,-2.4853,-2.486,-2.4907,-2.4889,-2.4978,-2.4876,-2.493,-2.4932,-2.4932,-2.5158,-2.5204,-2.5366,-2.508,-2.5084,-2.5086,0,-2.4898,-2.4918,-2.5032,-2.5022,-2.5038,-2.5088,-2.511,-2.5144,-2.5148,-2.5132,-2.5147,-2.5099,-2.5162,-2.5075,-2.516,-2.5093,-2.5112,-2.5107,-2.5112,-2.5115,-2.5019,-2.5169,-2.5416,-2.544,-2.512,-2.5117,-2.5115,0,-2.5068,-2.5123,-2.5199,-2.5206,-2.5195,-2.5233,-2.523,-2.5229,-2.5249,-2.5269,-2.5282,-2.531,-2.5325,-2.5348,-2.531,-2.5249,-2.5402,-2.5311,-2.5391,-2.5393,-2.5427,-2.5425,-2.5681,-2.5439,-2.5439,-2.5438,-2.5438,0,-2.5257,-2.533,-2.5275,-2.5322,-2.5403,-2.5351,-2.5433,-2.5422,-2.5423,-2.5467,-2.5403,-2.5447,-2.5393,-2.5432,-2.5403,-2.548,-2.5487,-2.5477,-2.5468,-2.5482,-2.5484,-2.5494,-2.5482,-2.5445,-2.5443,-2.5442,-2.5441,0,-2.546,-2.5426,-2.5504,-2.5488,-2.5486,-2.5546,-2.5533,-2.5577,-2.5556,-2.5613,-2.5624,-2.5591,-2.5634,-2.5598,-2.5639,-2.562,-2.5722,-2.5697,-2.5721,-2.5714,-2.5797,-2.579,-2.6069,-2.6103,-2.5839,-2.5842,-2.5844,0,-2.5582,-2.5637,-2.5628,-2.5653,-2.5654,-2.5695,-2.5716,-2.5668,-2.5693,-2.5703,-2.5746,-2.5783,-2.581,-2.5882,-2.5863,-2.5895,-2.5871,-2.5967,-2.5875,-2.5889,-2.5874,-2.5871,-2.5877,-2.5985,-2.5988,-2.5991,-2.5993,0,-2.5804,-2.5785,-2.5816,-2.5843,-2.5869,-2.5888,-2.5902,-2.5927,-2.5878,-2.5909,-2.5952,-2.5974,-2.6017,-2.6055,-2.6081,-2.608,-2.603,-2.6022,-2.6043,-2.6058,-2.607,-2.6066,-2.5772,-2.6016,-2.6013,-2.6012,-2.601,-2.601,-2.597,-2.6016,-2.6017,-2.6055,-2.6061,-2.6076,-2.6117,-2.6102,-2.6136,-2.6167,-2.6138,-2.619,-2.6195,-2.6225,-2.623,-2.6272,-2.6232,-2.6262,-2.6269,-2.6277,-2.629,-2.6064,-2.6276,-2.6276,-2.6275,-2.6274,-2.6274,0,-2.6189,-2.6187,-2.6222,-2.6244,-2.6275,-2.6225,-2.6238,-2.6268,-2.6314,-2.6323,-2.6352,-2.6403,-2.6441,-2.6425,-2.6459,-2.6495,-2.6473,-2.6506,-2.6503,-2.6504,-2.6323,-2.6302,-2.6523,-2.6523,-2.6523,-2.6523,-2.6523,-2.6523,-2.6306,-2.6382,-2.6364,-2.6442,-2.6439,-2.649,-2.6503,-2.6517,-2.6524,-2.6584,-2.6615,-2.6605,-2.6604,-2.6638,-2.6671,-2.6666,-2.6682,-2.6723,-2.671,-2.6541,-2.6516,-2.6493,-2.6473,-2.6727,-2.6727,-2.6888,-2.6889,-2.689]},{"header":{"parameterUnit":"m.s-1","parameterCategory":1,"la1":30.2991,"la2":30.254,"lo1":-89.0895,"lo2":-89.0444,"dy":0.0017,"dx":0.0017,"nx":28,"ny":28,"refTime":"2023-10-24T09:00:00:Z","depth":0,"parameterNumber":3,"parameterNumberName":"V-component_of_WINDS"},"data":[0,0,0,0,0,0,0,0,0,0,0,0,0,0,0,0,0,0,0,0,0,0,0,0,0,0,0,0,0,0,0,0,0,0,0,0,0,0,0,0,0,0,0,0,0,0,0,0,0,0,0,0,0,0,0,0,0,0,-0.0793,-0.0793,0,-0.0763,-0.0763,-0.0762,-0.0794,-0.0795,-0.0797,-0.0798,-0.0766,-0.0764,-0.0762,0,0,0,0,0,0,0,0,0,0,0,0,0,-0.0875,-0.0874,-0.0793,-0.0793,-0.0792,-0.0763,-0.0763,-0.0762,-0.0794,-0.0795,-0.0797,-0.0798,-0.0767,-0.0765,-0.0762,0,0,0,0,0,0,0,0,0,0,0,0,0,-0.0842,-0.0873,-0.0793,-0.0804,-0.0805,-0.0763,-0.0763,-0.0762,-0.0794,-0.0795,-0.0797,-0.0799,-0.0768,-0.0765,-0.0762,-0.0707,0,0,-0.0753,-0.0752,0,0,0,0,0,0,0,0,-0.0844,-0.0839,-0.0803,-0.0804,-0.0804,-0.0784,-0.078,-0.0744,-0.0793,-0.0798,-0.0798,-0.08,-0.0771,-0.0768,-0.0758,-0.0705,-0.0704,-0.0753,-0.0751,-0.075,-0.0749,0,0,0,0,0,0,0,-0.0846,-0.084,-0.0781,-0.0803,-0.0803,-0.081,-0.0808,-0.0773,-0.0774,-0.0798,-0.08,-0.0796,-0.0771,-0.0761,-0.0758,-0.0704,-0.0753,-0.075,-0.0748,-0.0747,-0.0601,-0.0599,0,0,0,0,0,0,-0.0847,-0.0842,-0.0782,-0.078,-0.0829,-0.0807,-0.0804,-0.0789,-0.0775,-0.0775,-0.0794,-0.0798,-0.0765,-0.0761,-0.0757,-0.0689,-0.075,-0.0747,-0.0745,-0.0603,-0.0601,-0.0598,0,0,0,0,0,0,-0.0849,-0.0842,-0.0783,-0.0812,-0.0805,-0.0804,-0.0786,-0.0787,-0.0777,-0.0772,-0.0773,-0.0783,-0.0766,-0.0761,-0.0718,-0.0688,-0.0746,-0.0743,-0.0606,-0.0602,-0.06,-0.0554,0,0,0,0,0,0,-0.0851,-0.0842,-0.0822,-0.0811,-0.0803,-0.0746,-0.0785,-0.0785,-0.0771,-0.0775,-0.0762,-0.0762,-0.0767,-0.0723,-0.0715,-0.0685,-0.074,-0.0608,-0.0604,-0.0601,-0.0559,-0.055,-0.0543,0,0,0,0,0,-0.0854,-0.0811,-0.0821,-0.0813,-0.0778,-0.0744,-0.074,-0.0747,-0.0769,-0.0748,-0.0745,-0.0762,-0.0693,-0.0718,-0.071,-0.0679,-0.061,-0.0605,-0.0601,-0.0562,-0.0552,-0.0543,0,0,0,0,0,0,-0.0818,-0.081,-0.082,-0.0773,-0.0759,-0.075,-0.0724,-0.0737,-0.0716,-0.0721,-0.0731,-0.0727,-0.0682,-0.0676,-0.0704,-0.0623,-0.0655,-0.0649,-0.0628,-0.0618,-0.0611,-0.0612,-0.0738,0,0,0,0,0,-0.0805,-0.0779,-0.0773,-0.0731,-0.0724,-0.0725,-0.071,-0.0717,-0.0703,-0.0698,-0.0692,-0.0677,-0.0652,-0.0635,-0.0612,-0.0558,-0.0554,-0.0533,-0.0525,-0.0518,-0.0512,-0.048,-0.047,-0.0583,-0.0583,-0.0583,0,0,-0.0777,-0.0769,-0.0752,-0.0724,-0.0714,-0.0685,-0.072,-0.0689,-0.0668,-0.0693,-0.0652,-0.0647,-0.0631,-0.0582,-0.056,-0.0576,-0.048,-0.0512,-0.0507,-0.0504,-0.0474,-0.0464,-0.0454,-0.058,-0.058,-0.0581,0,0,-0.0711,-0.0703,-0.0667,-0.0656,-0.064,-0.0641,-0.0632,-0.062,-0.0617,-0.0577,-0.0594,-0.0569,-0.0526,-0.0513,-0.0501,-0.0428,-0.0442,-0.042,-0.0378,-0.0348,-0.0339,-0.0331,-0.0302,-0.0292,-0.0414,-0.0414,-0.0414,0,-0.0678,-0.0637,-0.0646,-0.0613,-0.0599,-0.062,-0.0582,-0.0571,-0.0549,-0.0538,-0.0556,-0.0501,-0.0492,-0.0439,-0.042,-0.0411,-0.0399,-0.0421,-0.0339,-0.0331,-0.0324,-0.0297,-0.0287,-0.0411,-0.0412,-0.0412,-0.0412,0,-0.0596,-0.0567,-0.0539,-0.0516,-0.0499,-0.0464,-0.0466,-0.0448,-0.0455,-0.0453,-0.041,-0.04,-0.0374,-0.0362,-0.037,-0.0309,-0.0319,-0.0338,-0.037,-0.031,-0.0285,-0.0275,-0.0407,-0.0408,-0.0409,-0.041,0,0,-0.0508,-0.0489,-0.0478,-0.0467,-0.045,-0.0427,-0.0392,-0.0366,-0.0349,-0.0332,-0.0302,-0.0264,-0.028,-0.0267,-0.0273,-0.0246,-0.0185,-0.0268,-0.0268,-0.0251,-0.0115,-0.0099,-0.0087,-0.0195,-0.0193,-0.0192,-0.0115,0,-0.044,-0.0379,-0.0385,-0.0326,-0.0298,-0.0317,-0.0286,-0.0271,-0.0268,-0.0243,-0.024,-0.0212,-0.0238,-0.0229,-0.0203,-0.0198,-0.0158,-0.0204,-0.0165,-0.0163,-0.0166,-0.0074,-0.0058,0.0013,-0.0106,-0.0104,-0.0103,0,-0.0353,-0.0332,-0.027,-0.0256,-0.0244,-0.0216,-0.0191,-0.0168,-0.0151,-0.0151,-0.0134,-0.0144,-0.0107,-0.014,-0.0088,-0.0119,-0.0104,-0.0098,-0.0096,-0.0091,-0.0128,-0.0065,0.0035,0.0047,-0.0088,-0.0089,-0.009,0,-0.0292,-0.0249,-0.0205,-0.0195,-0.0178,-0.0157,-0.0149,-0.0134,-0.0117,-0.0095,-0.0084,-0.0058,-0.0044,-0.0023,-0.0025,-0.005,0.0029,-0.0006,0.0032,0.0032,0.005,0.0049,0.0157,0.0057,0.0057,0.0057,0.0057,0,-0.0215,-0.0176,-0.0177,-0.0151,-0.0107,-0.0113,-0.0069,-0.0063,-0.0049,-0.0021,-0.0036,-0.0008,-0.0014,0.0014,0.0012,0.0057,0.0063,0.0066,0.0066,0.0069,0.0069,0.008,0.0075,0.006,0.0059,0.0059,0.0058,0,-0.0139,-0.0139,-0.0092,-0.0079,-0.0074,-0.0042,-0.003,-0.0004,-0.0002,0.0035,0.0043,0.0047,0.008,0.0079,0.0115,0.0114,0.0171,0.0163,0.0165,0.0164,0.0203,0.02,0.0323,0.034,0.0227,0.0228,0.0229,0,-0.0089,-0.0059,-0.0041,-0.0023,-0.0013,0.0016,0.0034,0.0029,0.0048,0.0071,0.0095,0.0126,0.015,0.0203,0.021,0.0238,0.0233,0.0274,0.0237,0.024,0.0236,0.0235,0.0239,0.0281,0.0283,0.0284,0.0284,0,0.0001,0.0,0.0026,0.0053,0.0075,0.0095,0.0115,0.0131,0.0128,0.0151,0.0184,0.0203,0.0241,0.0273,0.0301,0.031,0.0298,0.0296,0.0307,0.0311,0.0312,0.0314,0.0187,0.0293,0.0293,0.0292,0.0291,0.0291,0.0067,0.0094,0.0111,0.0141,0.0155,0.0174,0.02,0.0207,0.0234,0.0265,0.026,0.0298,0.0316,0.0353,0.0365,0.0395,0.0381,0.0396,0.04,0.0404,0.0409,0.0306,0.04,0.04,0.0399,0.0399,0.0399,0,0.0158,0.0168,0.0196,0.0224,0.0249,0.0235,0.0256,0.0278,0.0311,0.0329,0.0354,0.0393,0.0425,0.0434,0.0465,0.0488,0.0483,0.0496,0.0495,0.0498,0.0419,0.0408,0.05,0.05,0.05,0.05,0.0499,0.0499,0.0208,0.0254,0.0255,0.0308,0.0319,0.0356,0.037,0.0388,0.0402,0.0447,0.0473,0.048,0.0495,0.0527,0.0556,0.0558,0.0571,0.0587,0.0587,0.0514,0.0503,0.0494,0.0484,0.059,0.059,0.0664,0.0665,0.0666]}]]